sat.trackr.live / text

‹ back to catalog

NSS-10

NORAD 28526 · 2005-003A

PAYLOAD ACTIVE UNKNOWN

§ Identity

Operator
Country
SES
Launch date
2005-02-03
Launch site
TYMSC
Launch vehicle
Mass (kg)
RCS (m²)
9.52

Purposes: comms

External: N2YO · Heavens-Above · Gunter

§ Orbital elements

Epoch: 2026-05-25T05:05:58.843104Z

Period
1,436.10 min
Inclination
6.3948°
Eccentricity
0.0003079
Mean motion
1.00271796 rev/d
Perigee alt
35,773.6 km
Apogee alt
35,799.6 km
Semi-major
42,164.7 km
B*
0.0000e+0
RAAN
70.7303°
Arg perigee
345.7272°
Mean anomaly
225.3873°
Rev number
5,292

§ Raw data

NSS-101 28526U 05003A   26145.21248661 -.00000253  00000+0  00000+0 0  99982 28526   6.3948  70.7303 0003079 345.7272 225.3873  1.00271796 52925

JSON: /api/v1/satellites/28526 · /tle

For live sub-satellite position, see the globe view (requires WebGL).

§ Visibility from observer

Set your observer location to see the next 7 days of passes ≥ 10°. The values pass through the URL so the page stays shareable.

No JS? Fill the form by hand. The geolocation button needs JavaScript.